Starlink 5337

operational
NORAD ID: 55284 Int'l Des: 2023-010 Owner: SPXS Country: US Constellation: starlink
LEOCIRCULAR

About Starlink 5337

Description loading...

Live Position

Loading 3D Globe...

Upcoming Passes

Altitude History

Altitude vs Time

uPlot chart will show altitude changes over time

Two-Line Element Set

1 55284U 23010R 25312.54380191 .00000397 00000-0 41101-4 0 9994
2 55284 70.0003 349.7375 0002868 264.1003 95.9829 14.98329324154629
Epoch: Nov 8, 2025 • Age: 64 hours

Current Status

Altitude 583.9 km
Velocity 7.57 km/s
Sub-Earth Point 61.21°N, 108.13°W
Launch Date Jan 19, 2023
Age 2.8 years
Type internet

Technical Details

Classification Payload
Mass 305.00 kg
Dry Mass 290.00 kg
Total Mass 305.00 kg
Length 0.20 m
Diameter 2.80 m
Span 9.00 m
Shape Box + pan
Manufacturer SPXS
Bus Type Starlink
Phase Status In Orbit
Owner/State SPXS/US

Large Constellations

Loading constellations...